Simultaneous Nadir Overpasses (SNOs) Predictions

Prediction of SNOs near equator between NOAA-19 and NPP Satellite Orbit:

Table of predicted SNOs near equator for the next 14.0 days since TLE Epoch: 11/30/2012
Index Date (NOAA-19) Time (NOAA-19) NOAA-19 Lat,Lon Date (NPP) Time (NPP) NPP Lat,Lon Distance(km) Time Diff (sec)
1 12/11/2012 01:27:15 -29.95, -3.32 12/11/2012 01:20:20 -29.73, -4.32 99.67 415
2 12/11/2012 02:18:19 30.00, 163.90 12/11/2012 02:11:10 29.82, 162.95 93.89 429
3 12/11/2012 03:09:20 -29.95, -28.84 12/11/2012 03:01:51 -29.80, -29.72 86.01 449
4 12/11/2012 04:00:23 29.95, 138.40 12/11/2012 03:52:39 29.77, 137.59 80.28 464
5 12/11/2012 04:51:25 -29.96, -54.37 12/11/2012 04:43:21 -29.80, -55.09 72.33 484
6 12/11/2012 05:42:28 29.96, 112.87 12/11/2012 05:34:10 29.84, 112.20 66.62 498
7 12/11/2012 06:33:
